• MPC Preparation (Info)

  • MPEC 2007-K40 : COMET C/2007 G1 (LINEAR)

    The following Minor Planet Electronic Circular may be linked-to from your own Web pages, but must not otherwise be redistributed electronically.

    A form allowing access to any MPEC is at the bottom of this page.


    Read MPEC 2007-K39 Read MPEC 2007-K41


    M.P.E.C. 2007-K40                                Issued 2007 May 24, 20:06 UT
    
         The Minor Planet Electronic Circulars contain information on unusual
             minor planets and routine data on comets.  They are published
       on behalf of Commission 20 of the International Astronomical Union by the
              Minor Planet Center, Smithsonian Astrophysical Observatory,
                              Cambridge, MA 02138, U.S.A.
    
                 Prepared using the Tamkin Foundation Computer Network
    
                                  MPC@CFA.HARVARD.EDU
              URL http://www.cfa.harvard.edu/iau/mpc.html  ISSN 1523-6714
    
                               COMET C/2007 G1 (LINEAR)
    
    Observations:
        CK07G010  C2007 05 14.65934 17 48 15.83 +35 52 19.9          17.1 T EK040355
        CK07G010  C2007 05 14.66280 17 48 15.67 +35 52 20.2                 EK040355
        CK07G010  C2007 05 14.66510 17 48 15.59 +35 52 20.7                 EK040355
        CK07G010  C2007 05 14.66626 17 48 15.57 +35 52 20.5                 EK040355
        CK07G010  C2007 05 14.66972 17 48 15.39 +35 52 20.8                 EK040355
        CK07G010  C2007 05 16.98387 17 46 31.13 +35 56 03.4          17.2 N EK040A03
        CK07G010  C2007 05 16.98757 17 46 31.03 +35 56 03.4          17.3 N EK040A03
        CK07G010  C2007 05 16.99127 17 46 30.83 +35 56 03.6          17.4 N EK040A03
        CK07G010  C2007 05 16.99499 17 46 30.64 +35 56 03.6          17.6 N EK040A03
        CK07G010  C2007 05 17.64707 17 46 00.50 +35 56 57.6                 EK040349
        CK07G010  C2007 05 17.65443 17 46 00.17 +35 56 58.3                 EK040349
        CK07G010  C2007 05 17.66181 17 45 59.82 +35 56 59.0          17.5 T EK040349
        CK07G010  C2007 05 18.01627 17 45 43.35 +35 57 26.0          17.3 N EK040A24
        CK07G010  C2007 05 18.01726 17 45 43.23 +35 57 25.0          17.1 N EK040A24
        CK07G010  C2007 05 18.02480 17 45 42.95 +35 57 26.8          17.4 N EK040A24
        CK07G010  C2007 05 18.04084 17 45 42.20 +35 57 29.1          17.0 N EK040A24
        CK07G010  C2007 05 18.04184 17 45 42.16 +35 57 28.5          17.1 N EK040A24
        CK07G010  C2007 05 18.95883 17 44 59.15 +35 58 34.7          17.1 N EK040A03
        CK07G010  C2007 05 18.96252 17 44 58.96 +35 58 34.8          17.0 N EK040A03
        CK07G010  C2007 05 18.96998 17 44 58.60 +35 58 34.9          17.2 N EK040A03
        CK07G010  C2007 05 18.99053 17 44 57.63 +35 58 36.9          17.5 N EK040213
        CK07G010  C2007 05 18.99497 17 44 57.37 +35 58 36.8          17.5 N EK040213
        CK07G010  C2007 05 18.99720 17 44 57.31 +35 58 37.2          17.3 N EK040213
        CK07G010  C2007 05 19.01914 17 44 56.21 +35 58 39.0          16.9 N EK040A24
        CK07G010  C2007 05 19.01965 17 44 56.19 +35 58 38.9          17.1 N EK040A24
        CK07G010  C2007 05 19.02015 17 44 56.19 +35 58 38.9          17.3 N EK040A24
        CK07G010  C2007 05 19.02829 17 44 55.77 +35 58 39.4          17.1 N EK040A24
        CK07G010  C2007 05 19.04457 17 44 54.97 +35 58 40.2          17.4 N EK040A24
        CK07G010  C2007 05 19.04508 17 44 54.95 +35 58 40.1          17.3 N EK040A24
        CK07G010  C2007 05 19.04558 17 44 54.93 +35 58 40.2          17.1 N EK040A24
        CK07G010  C2007 05 19.06825 17 44 53.92 +35 58 41.5          17.2 N EK040A24
        CK07G010  C2007 05 19.06875 17 44 53.87 +35 58 41.9          17.5 N EK040A24
        CK07G010  C2007 05 19.88720 17 44 14.89 +35 59 33.2          17.2 N EK040157
        CK07G010  C2007 05 19.89013 17 44 14.75 +35 59 33.1          17.0 N EK040157
        CK07G010  C2007 05 19.93701 17 44 12.52 +35 59 36.4          17.4 N EK040B20
        CK07G010  C2007 05 19.94058 17 44 12.35 +35 59 35.8          17.1 N EK040B20
        CK07G010  C2007 05 19.94415 17 44 12.16 +35 59 36.2          17.0 N EK040B20
        CK07G010  C2007 05 21.03851 17 43 19.23 +36 00 35.2          17.5 N EK040118
        CK07G010  C2007 05 21.05330 17 43 18.45 +36 00 35.8          17.2 N EK040118
        CK07G010  C2007 05 21.05944 17 43 18.22 +36 00 36.0          17.6 N EK040118
        CK07G010  C2007 05 21.23693 17 43 09.63 +36 00 45.6          17.5 N EK040H47
        CK07G010  C2007 05 21.27009 17 43 07.99 +36 00 46.8          17.6 N EK040H47
        CK07G010  C2007 05 22.06388 17 42 28.97 +36 01 19.9          17.3 N EK040A39
        CK07G010  C2007 05 22.06853 17 42 28.73 +36 01 19.9          17.3 N EK040A39
        CK07G010  C2007 05 22.07318 17 42 28.50 +36 01 19.9          17.2 N EK040A39
        CK07G010  C2007 05 22.91378 17 41 46.92 +36 01 49.2          17.5 N EK040213
        CK07G010  C2007 05 22.92046 17 41 46.58 +36 01 49.9          17.3 N EK040213
        CK07G010  C2007 05 23.86738 17 40 59.18 +36 02 13.4          17.1 N EK040J76
        CK07G010  C2007 05 23.86882 17 40 59.04 +36 02 12.7          17.3 N EK040J76
        CK07G010  C2007 05 23.86955 17 40 59.04 +36 02 12.7          17.2 N EK040J76
    
    Observer details:
    118 Modra.  Observer L. Kornos.  0.6-m f/5.5 reflector + CCD.
    157 Frasso Sabino.  Observers R. Haver, R. Gorelli, M. Calabresi, F. Anzellini,
        M. Panella.  Measurer R. Haver.  0.37-m f/7.1 Cassegrain + CCD.
    213 Observatorio Montcabre.  Observer R. Naves.  Measurer M. Campas.  0.30-m
        f/10 Schmidt-Cassegrain + CCD.
    349 Ageo.  Observer K. Kadota.  0.25-m f/5.0 reflector + CCD.
    355 Hadano.  Observer A. Asami.  0.28-m f/5.0 reflector + CCD.
    A03 Torredembarra.  Observer J. Moreno.  0.35-m Schmidt-Cassegrain + CCD.
    A24 New Millennium Observatory, Mozzate.  Observer E. Cozzi.  0.36-m f/7.6
        Schmidt-Cassegrain + CCD.
    A39 Altenburg.  Observer J. Kopplin.  0.25-m f/7.2 Schmidt-Cassegrain + CCD.
    B20 Observatori Carmelita, Tiana.  Observer J. M. Aymami.  0.20-m f/4.2
        Schmidt-Cassegrain + CCD.
    H47 Vicksburg.  Observer C. Bell.  0.3-m Schmidt-Cassegrain + CCD.
    J76 La Murta.  Observers S. Pastor, J. A. Reyes.  0.40-m f/6.3
        Schmidt-Cassegrain + CCD.
    
    Orbital elements:
        C/2007 G1 (LINEAR)
    T 2008 Nov. 16.8404 TT                                  MPC
    q   2.645736             (2000.0)            P               Q
                       Peri.  224.0756      -0.1175351      +0.1529922
                       Node    78.9969      -0.3739334      +0.9085210
    e   1.0            Incl.   88.3564      -0.9199779      -0.3888227
    From 315 observations 2007 Apr. 10-May 23.
    
    Brian G. Marsden             (C) Copyright 2007 MPC           M.P.E.C. 2007-K40
    

    Read MPEC 2007-K39 Read MPEC 2007-K41


    MPEC number:

    Enter an MPEC number in one of the following forms:

    • 1997-B01 (the full form)
    • J97B01 (the packed version of the full form)
    • B01 (the abbreviated form)